OSCAR 7 (AO-7) 1 07530U 74089B 26062.66303753 -.00000044 00000+0 15322-4 0 9997 2 07530 101.9969 74.7880 0012027 333.8373 145.2081 12.53696252347295 PHASE 3B (AO-10) 1 14129U 83058B 26061.53393855 -.00000164 00000+0 00000+0 0 9997 2 14129 25.9320 237.4860 6049007 86.0782 336.7646 2.05874052293290 UOSAT 2 (UO-11) 1 14781U 84021B 26062.49736568 .00002024 00000+0 21301-3 0 9997 2 14781 97.7937 29.3491 0007858 162.1253 198.0243 14.90478819241387 LUSAT (LO-19) 1 20442U 90005G 26062.62073614 .00000201 00000+0 88596-4 0 9993 2 20442 98.8939 81.4758 0012108 151.3360 208.8491 14.34085025887269 EYESAT A (AO-27) 1 22825U 93061C 26062.69345401 .00000155 00000+0 76005-4 0 9998 2 22825 98.6994 130.0988 0009211 55.1566 305.0482 14.30910753691917 ITAMSAT (IO-26) 1 22826U 93061D 26062.77409370 .00000180 00000+0 84654-4 0 9991 2 22826 98.6943 130.0863 0009515 39.5113 320.6761 14.31334617692234 RADIO ROSTO (RS15) 1 23439U 94085A 26062.75336236 -.00000010 00000+0 91777-3 0 9993 2 23439 64.8146 113.7348 0152451 23.1474 337.6224 11.27583827284014 JAS-2 (FO-29) 1 24278U 96046B 26062.51035968 -.00000016 00000+0 19973-4 0 9991 2 24278 98.5391 285.7656 0350085 10.7932 350.0477 13.53268418458871 TECHSAT 1B (GO-32) 1 25397U 98043D 26062.55859358 .00000117 00000+0 70908-4 0 9990 2 25397 99.0020 52.6812 0001875 129.2562 230.8782 14.24404107436291 ISS (ZARYA) 1 25544U 98067A 26062.76956237 .00010027 00000+0 19358-3 0 9999 2 25544 51.6317 101.6250 0008204 153.6152 206.5256 15.48425902555413 PCSAT (NO-44) 1 26931U 01043C 26062.69115843 .00000250 00000+0 12407-3 0 9995 2 26931 67.0509 157.1258 0007029 265.3965 94.6334 14.31908513275348 SAUDISAT 1C (SO-50) 1 27607U 02058C 26062.54737567 .00002181 00000+0 27456-3 0 9995 2 27607 64.5510 95.7694 0075104 281.7708 77.4980 14.82753743248794 CUTE-1 (CO-55) 1 27844U 03031E 26062.59243050 .00000460 00000+0 21825-3 0 9996 2 27844 98.6778 72.4669 0010485 128.3914 231.8208 14.24260210176642 CUBESAT XI-IV (CO-57) 1 27848U 03031J 26062.45798097 .00000377 00000+0 18495-3 0 9997 2 27848 98.6808 72.1317 0010118 145.3523 214.8316 14.23556086176330 MOZHAETS 4 (RS22) 1 27939U 03042A 26062.89407872 .00002089 00000+0 33151-3 0 9994 2 27939 98.3424 244.2942 0010264 240.4052 256.1827 14.73234879200044 CUBESAT XI-V 1 28895U 05043F 26062.39543610 .00002713 00000+0 43696-3 0 9994 2 28895 98.2815 215.9011 0014379 177.1560 182.9731 14.72285021 86183 CUTE-1.7+APD II (CO-65) 1 32785U 08021C 26062.87560311 .00009717 00000+0 63010-3 0 9999 2 32785 97.8198 42.2431 0010278 36.7740 323.4191 15.08270933969319 SEEDS II (CO-66) 1 32791U 08021J 26062.50727596 .00024010 00000+0 86001-3 0 9994 2 32791 97.7506 55.6816 0002563 18.3674 341.7657 15.28751446971120 YUBILEINY (RS30) 1 32953U 08025A 26062.91339966 .00000124 00000+0 81901-3 0 9997 2 32953 82.4985 60.9174 0019319 177.8565 182.2601 12.43176325806614 KKS-1 (KISEKI) 1 33499U 09002H 26062.72904367 .00002549 00000+0 32193-3 0 9993 2 33499 98.1190 343.5338 0006473 274.4198 85.6275 14.82801526920564 SWISSCUBE 1 35932U 09051B 26062.66110515 .00001642 00000+0 33546-3 0 9994 2 35932 98.4105 328.6970 0006664 170.6668 189.4657 14.62239489873738 BEESAT-1 1 35933U 09051C 26062.68531796 .00001377 00000+0 28744-3 0 9994 2 35933 98.4035 328.5738 0004889 181.8216 178.2968 14.61516240873779 ITUPSAT1 1 35935U 09051E 26062.72139682 .00001275 00000+0 27434-3 0 9991 2 35935 98.4123 327.9111 0006873 197.5625 162.5338 14.60252771873345 XIWANG-1 (HOPE-1) 1 36122U 09072B 26062.83303992 .00000325 00000+0 96812-3 0 9993 2 36122 100.3903 18.4066 0008041 111.9992 248.1975 13.16437439779147 O/OREOS (USA 219) 1 37224U 10062C 26062.76946918 .00003411 00000+0 33093-3 0 9992 2 37224 71.9725 319.0425 0016922 266.6076 93.3159 14.93242441100902 JUGNU 1 37839U 11058B 26062.71648759 .00000525 00000+0 13477-3 0 9994 2 37839 19.9595 229.1867 0018654 351.7524 111.4447 14.13737595744086 SRMSAT 1 37841U 11058D 26062.20286726 .00000470 00000+0 11156-3 0 9994 2 37841 19.9732 340.9649 0011886 118.1185 34.7703 14.11544671742821 STRAND-1 1 39090U 13009E 26062.43733931 .00000484 00000+0 17733-3 0 9992 2 39090 98.3881 245.2845 0008655 180.0154 180.1035 14.37088223681879 ZACUBE-1 (TSHEPISOSAT) 1 39417U 13066B 26062.86089902 .00006842 00000+0 54155-3 0 9990 2 39417 97.8183 24.6561 0041678 239.6691 120.0407 15.00250727664939 GOMX-1 1 39430U 13066Q 26062.83113796 .00002255 00000+0 34457-3 0 9998 2 39430 97.6570 269.9016 0130614 56.1579 305.1979 14.69069925654444 CUBEBUG-2 (LO-74) 1 39440U 13066AA 26062.86655321 .00008858 00000+0 83132-3 0 9996 2 39440 97.8812 11.5305 0059389 18.3107 342.0232 14.92865511661276 FUNCUBE-1 (AO-73) 1 39444U 13066AE 26062.33666782 .00010715 00000+0 69419-3 0 9992 2 39444 97.8168 31.7675 0036610 201.2550 158.7158 15.07759862663702 UWE-3 1 39446U 13066AG 26062.84429508 .00007180 00000+0 62860-3 0 9998 2 39446 97.8593 18.3537 0048814 312.6373 47.0737 14.96096774661820 UNISAT-6 1 40012U 14033C 26062.41795623 .00004289 00000+0 46892-3 0 9995 2 40012 97.7710 217.1252 0046430 58.1848 302.3877 14.87578755630434 DUCHIFAT-1 1 40021U 14033M 26062.69358967 .00071797 00000+0 13196-2 0 9999 2 40021 98.0640 108.4184 0006619 100.7475 259.4520 15.48953119639346 QB50P1 1 40025U 14033R 26062.50739141 .00011655 00000+0 60376-3 0 9990 2 40025 98.0997 66.3728 0007689 217.9822 142.0868 15.16352684637004 LILACSAT-2 1 40908U 15049K 26062.82598752 .00022425 00000+0 43358-3 0 9992 2 40908 97.4814 95.8472 0005588 274.8926 85.1686 15.47764147579433 FOX-1A (AO-85) 1 40967U 15058D 26062.75439013 .00005284 00000+0 47771-3 0 9990 2 40967 64.7736 246.4691 0129213 98.3220 263.2567 14.90292727 97858 CAS-2T & KS-1Q 1 41847U 16066G 26062.74981828 .00001890 00000+0 27184-3 0 9998 2 41847 98.3898 139.6652 0343777 89.4440 274.6126 14.44447987489576 RADFXSAT (FOX-1B) 1 43017U 17073E 26062.76684852 .00014063 00000+0 63746-3 0 9997 2 43017 97.4872 292.1886 0155380 332.6956 26.6167 15.10717592449469 DIWATA-2B 1 43678U 18084H 26062.85173122 .00001954 00000+0 16256-3 0 9995 2 43678 98.1031 254.6490 0011145 145.0606 215.1350 14.99921929400428 ES'HAIL 2 1 43700U 18090A 26062.80556189 .00000130 00000+0 00000+0 0 9992 2 43700 0.0190 229.8505 0002613 146.3075 101.1819 1.00270972 26620 FOX-1CLIFF (AO-95) 1 43770U 18099N 26062.14430379 .00013475 00000+0 55490-3 0 9990 2 43770 97.4530 122.9032 0008885 10.7969 349.3457 15.24199958397053 ITASAT 1 43786U 18099AE 26062.64262248 .00009887 00000+0 49452-3 0 9993 2 43786 97.4180 116.2939 0012847 7.8683 352.2750 15.17555336396894 JY1SAT (JO-97) 1 43803U 18099AX 26062.60463825 .00022566 00000+0 77746-3 0 9999 2 43803 97.4266 125.2819 0004622 285.6842 74.3888 15.30022235397461 UWE-4 1 43880U 18111E 26062.76119251 .00042354 00000+0 10754-2 0 9999 2 43880 97.5856 346.8362 0008744 2.0975 358.0305 15.39499406394520 TIANYAN 01 1 44881U 19093C 26062.82875501 .00001596 00000+0 18686-3 0 9991 2 44881 97.7627 137.6057 0015044 75.1791 285.1090 14.86325734335760 RS-44 & BREEZE-KM R/B 1 44909U 19096E 26062.46207020 .00000009 00000+0 -13046-4 0 9995 2 44909 82.5190 49.9536 0218171 31.8470 329.5611 12.79747398288824 SALSAT 1 46495U 20068K 26062.77970161 .00012684 00000+0 46597-3 0 9992 2 46495 97.8847 59.5668 0008731 321.6728 38.3888 15.28039347299257 XW-3 (CAS-9) 1 50466U 21131B 26062.88063144 .00000593 00000+0 19724-3 0 9991 2 50466 98.4969 155.8697 0005076 64.0743 296.0968 14.41241212219948 GREENCUBE (IO-117) 1 53109U 22080E 26061.72898270 -.00000003 00000+0 00000+0 0 9990 2 53109 70.1617 335.2737 0009043 313.3588 46.6318 6.42583122 85227 UMKA 1 (RS40S) 1 57172U 23091G 26062.71138299 .00009783 00000+0 46275-3 0 9996 2 57172 97.5191 121.8421 0014483 124.8398 235.4201 15.19488018147981 CUBESX-HSE 3 (RS42S) 1 57178U 23091N 26062.86824374 .00019676 00000+0 71185-3 0 9994 2 57178 97.5220 127.2801 0012805 105.6604 254.6049 15.28387115148323 MONITOR-3 (RS58S) 1 57180U 23091Q 26062.87537556 .00015734 00000+0 62063-3 0 9997 2 57180 97.5215 125.6573 0013729 110.2681 250.0034 15.25558955148223 MONITOR-4 (RS57S) 1 57182U 23091S 26062.86082682 .00016493 00000+0 64870-3 0 9994 2 57182 97.5209 125.6074 0013671 110.6921 249.5783 15.25644852148227 MONITOR-2 (RS39S) 1 57184U 23091U 26062.87187310 .00007174 00000+0 35714-3 0 9992 2 57184 97.5214 121.8439 0012950 116.6282 243.6279 15.17827034147975 SVYATOBOR 1 (RS60S) 1 57187U 23091X 26062.85932080 .00014647 00000+0 59430-3 0 9999 2 57187 97.5221 126.1771 0011255 103.1459 257.1035 15.24658453148254 VIZARD-METEO (RS38S) 1 57189U 23091Z 26062.88721306 .00024834 00000+0 79155-3 0 9996 2 57189 97.5210 130.4818 0008996 90.1928 270.0344 15.32488356148549 NANOZOND 1 (RS49S) 1 57190U 23091AA 26062.83016157 .00236008 00000+0 17646-2 0 9998 2 57190 97.5097 142.6168 0000542 53.7197 306.4116 15.71985623149352 POLYTECH-UNIVERSE 3 (R*) 1 57191U 23091AB 26062.84666124 .00008302 00000+0 40991-3 0 9999 2 57191 97.5187 121.3258 0017106 132.8981 227.3691 15.18008054147960 UTMN 2 (RS27S) 1 57203U 23091AP 26062.87989008 .00019320 00000+0 68103-3 0 9992 2 57203 97.5212 128.7961 0009901 94.4155 265.8216 15.29273333148434 KUZGTU 1 (RS47S) 1 57217U 23091AV 26062.83976683 .00018269 00000+0 68395-3 0 9992 2 57217 97.5197 126.3813 0013003 108.4384 251.8270 15.27272143148283 SONATE-2 1 59112U 24043Q 26062.33696594 .00042896 00000+0 74322-3 0 9991 2 59112 97.5388 206.9640 0007797 228.8170 131.2409 15.50754835111449 MESAT1 1 60209U 24125G 26062.64448548 .00052379 00000+0 83683-3 0 9996 2 60209 97.2463 278.4275 0011263 246.9709 113.0357 15.52946905 93137 OOV-CUBE (TUBSAT-30) 1 60240U 24128F 26062.70540566 .00004646 00000+0 35541-3 0 9998 2 60240 61.9935 233.2348 0055028 111.1965 249.5017 15.02193642 90264 COLIBRI-S (RS67S) 1 61746U 24199M 26062.71936405 .00028782 00000+0 65031-3 0 9994 2 61746 97.3169 295.8530 0008036 311.7377 48.3183 15.43113643121124 HORS 3 (RS81S) 1 61753U 24199U 26062.82916212 .00043110 00000+0 82576-3 0 9993 2 61753 97.3138 297.0288 0006158 318.9853 41.0934 15.47896740121228 HORS 4 (RS82S) 1 61754U 24199V 26062.84290666 .00049745 00000+0 86563-3 0 9994 2 61754 97.3116 297.7171 0005868 315.9996 44.0788 15.50613049121273 HORIZON (RS59S) 1 61757U 24199Y 26062.75255079 .00155610 00000+0 13627-2 0 9995 2 61757 97.3086 301.2985 0003198 290.7323 69.3595 15.68394641121497 ARCTICSAT 1 (RS74S) 1 61762U 24199AD 26062.81326098 .00121690 00000+0 12574-2 0 9999 2 61762 97.3103 300.9207 0003577 287.2904 72.7964 15.64360183121479 SIT-2086 1 61764U 24199AF 26062.77289587 .00030810 00000+0 60405-3 0 9997 2 61764 97.3134 297.7092 0006306 298.2653 61.7961 15.47291085118102 RUZAEVKA 390 (RS44S) 1 61766U 24199AH 26062.75157794 .01040673 56408-3 18034-2 0 9997 2 61766 97.2864 304.6278 0001789 161.1754 198.9592 16.02417658118579 HYPERVIEW 1G (RS66S) 1 61772U 24199AP 26062.78160985 .00081707 00000+0 11214-2 0 9991 2 61772 97.3099 298.7037 0007033 312.7166 47.3497 15.57037250118185 ALTAIR (RS65S) 1 61779U 24199AW 26062.83431316 .00016270 00000+0 48227-3 0 9991 2 61779 97.3191 292.9376 0012628 331.2133 28.8412 15.34842795120944 ASRTU-1 (AO-123) 1 61781U 24199AY 26062.81040016 .00012466 00000+0 38110-3 0 9998 2 61781 97.3164 292.4513 0013375 333.1335 26.9214 15.33918148117760 TUSUR GO (RS78S) 1 61782U 24199AZ 26062.83110787 .00175333 00000+0 15058-2 0 9992 2 61782 97.3043 300.3903 0004272 309.8947 50.1939 15.68808561118303 SAMSAT-IONOSPHERE (RS7*) 1 61784U 24199BB 26062.72842750 .00048999 00000+0 90239-3 0 9996 2 61784 97.3127 296.7107 0009179 319.4715 40.5851 15.48973575121196 RTU MIREA 1 (RS51S) 1 61785U 24199BC 26062.79811986 .00056595 00000+0 97546-3 0 9990 2 61785 97.3126 297.2090 0008909 315.0340 45.0190 15.50827475118089 TEVEL2-4 1 63213U 25052D 26062.68025924 .00026415 00000+0 89277-3 0 9994 2 63213 97.4034 319.1254 0004493 106.7690 253.4044 15.30614446 53956 TEVEL2-5 1 63214U 25052E 26062.69074817 .00026304 00000+0 89220-3 0 9996 2 63214 97.4034 319.1100 0004486 106.2473 253.9261 15.30498940 53958 TEVEL2-6 1 63215U 25052F 26062.63503006 .00026501 00000+0 90006-3 0 9991 2 63215 97.4037 319.0398 0004591 107.8577 252.3165 15.30454463 53946 TEVEL2-1 1 63217U 25052H 26062.69703151 .00025683 00000+0 88350-3 0 9991 2 63217 97.4010 318.8401 0004432 116.6791 243.4904 15.30046561 53949 TEVEL2-3 1 63218U 25052J 26062.69474646 .00025663 00000+0 88187-3 0 9992 2 63218 97.4014 318.8487 0004442 118.5086 241.6602 15.30080734 53942 TEVEL2-2 1 63219U 25052K 26062.69769975 .00025579 00000+0 87990-3 0 9992 2 63219 97.4011 318.8415 0004357 117.5703 242.5981 15.30048117 53940 TEVEL2-9 1 63237U 25052AD 26062.67942472 .00022183 00000+0 80393-3 0 9993 2 63237 97.4074 318.4032 0007444 141.7645 218.4124 15.28354901 53897 TEVEL2-7 1 63238U 25052AE 26062.63741027 .00022614 00000+0 82474-3 0 9994 2 63238 97.4078 318.3155 0007576 141.9181 218.2595 15.28142273 53886 TEVEL2-8 1 63239U 25052AF 26062.64434470 .00022928 00000+0 83670-3 0 9994 2 63239 97.4074 318.3034 0007480 142.3378 217.8387 15.28119678 53883 HADES-ICM 1 63492U 25052BN 26062.65216698 .00157932 00000+0 23190-2 0 9990 2 63492 97.3970 322.8879 0008396 122.9792 237.2270 15.54914942 54206 INNOSAT 16 (RS92S7) 1 64878U 25155C 26062.80780611 .00009498 00000+0 39359-3 0 9999 2 64878 97.4453 30.4460 0010239 185.8571 174.2548 15.24066754 64612 GEOSCAN 6 (RS92S6) 1 64879U 25155D 26062.68981370 .00015797 00000+0 58380-3 0 9995 2 64879 97.4452 31.0782 0007879 173.9244 186.2092 15.27781643 64641 GEOSCAN 1 (RS92S1) 1 64880U 25155E 26062.79272041 .00018940 00000+0 69038-3 0 9992 2 64880 97.4451 31.2513 0007775 173.8013 186.3324 15.28195834 64667 239ALFEROV (RS61S) 1 64881U 25155F 26062.82417840 .00023209 00000+0 80798-3 0 9995 2 64881 97.4457 31.5428 0007500 170.5226 189.6157 15.29662298 64684 GEOSCAN 2 (RS92S2) 1 64890U 25155Q 26062.80623465 .00017863 00000+0 64543-3 0 9994 2 64890 97.4450 31.3729 0007713 159.6146 200.5403 15.28497935 64673 GEOSCAN 5 (RS92S5) 1 64891U 25155R 26062.83561468 .00023579 00000+0 81261-3 0 9999 2 64891 97.4450 31.6500 0006105 173.4154 186.7168 15.29996810 64693 GEOSCAN 4 (RS92S4) 1 64892U 25155S 26062.76299377 .00023386 00000+0 80355-3 0 9998 2 64892 97.4453 31.6005 0006091 173.9568 186.1747 15.30095768 64685 GEOSCAN 3 (RS92S3) 1 64893U 25155T 26062.81130017 .00028471 00000+0 93947-3 0 9991 2 64893 97.4445 31.8288 0005716 173.4659 186.6658 15.31368066 64705 INNOSAT 3 (RS92S0) 1 64894U 25155U 26062.79780286 .00049629 00000+0 14037-2 0 9998 2 64894 97.4415 32.4228 0005278 162.9548 197.1874 15.36144968 64746